TimeEDT,TemperatureF,Dew PointF,Humidity,Sea Level PressureIn,VisibilityMPH,Wind Direction,Wind SpeedMPH,Gust SpeedMPH,PrecipitationIn,Events,Conditions,WindDirDegrees,DateUTC
12:54 AM,59.0,55.9,90,30.14,10.0,Calm,Calm,-,0.00,Rain,Light Rain,0,2013-08-26 04:54:00
1:54 AM,61.0,57.0,87,30.14,10.0,West,6.9,-,0.01,Rain,Light Rain,260,2013-08-26 05:54:00
2:54 AM,61.0,59.0,93,30.12,6.0,SW,3.5,-,0.06,Rain,Rain,230,2013-08-26 06:54:00
3:54 AM,61.0,60.1,97,30.10,10.0,Calm,Calm,-,0.04,Rain,Light Rain,0,2013-08-26 07:54:00
4:54 AM,61.0,60.1,97,30.09,8.0,Calm,Calm,-,0.05,Rain,Light Rain,0,2013-08-26 08:54:00
5:54 AM,61.0,59.0,93,30.06,9.0,SSE,3.5,-,0.02,Rain,Light Rain,150,2013-08-26 09:54:00
6:54 AM,62.1,60.1,93,30.04,10.0,ESE,4.6,-,0.00,,Overcast,120,2013-08-26 10:54:00
7:54 AM,63.0,60.1,90,30.02,10.0,SW,8.1,-,N/A,,Overcast,230,2013-08-26 11:54:00
8:54 AM,68.0,61.0,78,30.01,10.0,Variable,4.6,-,N/A,,Mostly Cloudy,0,2013-08-26 12:54:00
9:54 AM,70.0,61.0,73,30.00,10.0,West,9.2,-,N/A,,Overcast,260,2013-08-26 13:54:00
10:54 AM,75.0,63.0,66,29.98,10.0,SSW,5.8,-,N/A,,Overcast,200,2013-08-26 14:54:00
1:54 PM,73.9,64.9,73,29.94,10.0,Calm,Calm,-,N/A,,Overcast,0,2013-08-26 17:54:00
2:54 PM,75.0,64.9,71,29.92,10.0,SSW,3.5,-,N/A,,Mostly Cloudy,200,2013-08-26 18:54:00
3:54 PM,77.0,64.9,66,29.90,10.0,SW,8.1,-,N/A,,Mostly Cloudy,230,2013-08-26 19:54:00
4:54 PM,75.0,64.9,71,29.89,10.0,Variable,3.5,-,N/A,,Clear,0,2013-08-26 20:54:00
5:54 PM,73.9,66.0,76,29.89,10.0,WSW,5.8,-,N/A,,Partly Cloudy,240,2013-08-26 21:54:00
6:54 PM,72.0,66.0,81,29.89,10.0,Calm,Calm,-,N/A,,Clear,0,2013-08-26 22:54:00
7:54 PM,71.1,64.9,81,29.89,10.0,Calm,Calm,-,N/A,,Clear,0,2013-08-26 23:54:00
8:54 PM,68.0,66.0,93,29.89,8.0,Calm,Calm,-,N/A,,Clear,0,2013-08-27 00:54:00
9:54 PM,66.9,64.9,93,29.89,6.0,Calm,Calm,-,N/A,,Clear,0,2013-08-27 01:54:00
10:54 PM,66.0,64.0,93,29.88,4.0,Calm,Calm,-,N/A,,Clear,0,2013-08-27 02:54:00
11:54 PM,64.9,64.0,97,29.88,4.0,Calm,Calm,-,N/A,,Clear,0,2013-08-27 03:54:00